Location: Krakow
(50.0830°N, 19.9170°E)
Time: 05:43:54
(UTC+01:00)

SR - Pass Details

Date: 09 February 2023
Orbit: 582 x 867 km, 66.7° (Epoch: 20 March)

Event Time Altitude Azimuth Distance (km) Brightness Sun altitude
Rises 15:44:16 0° 281° (WNW) 3,060 ? 8.1°
Reaches altitude 10° 15:47:52 10° 308° (NW) 2,079 ? 7.6°
Maximum altitude 15:50:11 13° 338° (NNW) 1,818 ? 7.3°
Drops below altitude 10° 15:52:26 10° 8° (N) 2,008 ? 7.0°
Sets 15:55:47 0° 36° (NE) 2,871 ? 6.5°
